Location: Florence
(33.9745°N, 118.2481°W)
Time: 20:36:32
(UTC+00:00)

DMSP B5D2-2 - Pass Details

Date: 23 March 2023
Orbit: 789 x 804 km, 98.3° (Epoch: 05 June)

Event Time Altitude Azimuth Distance (km) Brightness Sun altitude
Rises 13:13:29 0° 181° (S) 3,290 7.2 -9.0°
Reaches altitude 10° 13:15:53 10° 187° (S) 2,362 6.4 -8.5°
Maximum altitude 13:20:53 46° 260° (W) 1,054 4.3 -7.4°
Drops below altitude 10° 13:25:55 10° 334° (NNW) 2,367 6.3 -6.4°
Sets 13:28:20 0° 341° (NNW) 3,298 7.1 -5.9°
